{"data":{"norad_id":69670,"epoch":"2026-09-19T01:31:15.306240Z","epoch_age_seconds":145758,"freshness":"FRESH","line1":"1 69670U 26143X   26262.06337160  .00013115  00000+0  40777-3 0  9996","line2":"2 69670  97.2846 305.2922 0001052 112.2408 247.8947 15.33451985 14926","mean_motion":15.33451985,"eccentricity":0.0001052,"inclination_deg":97.2846,"raan_deg":305.2922,"arg_perigee_deg":112.2408,"mean_anomaly_deg":247.8947,"bstar":0.00040777,"rev_number":1492,"period_min":93.905776906344,"perigee_km":464.80243914334,"apogee_km":466.24234507943,"semimajor_km":6843.6593921114,"source":"CELESTRAK","updated_at":"2026-09-20T09:00:44.251092Z"}}